Manhattan, KS

8:48 AM CDT on April 20, 2018 (GMT -0500)
Manhattan Regional

Weather History for KMHK - July, 2013

Change the Weather History Date:

Tuesday, July 23, 2013

  Actual Average Record
Temperature  
Mean Temperature 75 °F 80 °F  
Max Temperature 83 °F 92 °F 107 °F (2011)
Min Temperature 66 °F 67 °F 55 °F (2006)
Degree Days  
Heating Degree Days 0 0  
Month to date heating degree days 0 0  
Since 1 June heating degree days 9 11  
Since 1 July heating degree days 0 0  
Cooling Degree Days 10 15  
Month to date cooling degree days 344 321  
Year to date cooling degree days 798 691  
Since 1 June cooling degree days 662 591  
Growing Degree Days 24 (Base 50)    
Moisture  
Dew Point 69 °F    
Average Humidity 84    
Maximum Humidity 100    
Minimum Humidity 67    
Precipitation  
Precipitation T in 0.10 in 2.13 in (1998)
Month to date precipitation 1.33 3.06  
Year to date precipitation 14.12 19.35  
Sea Level Pressure  
Sea Level Pressure 29.87 in    
Wind  
Wind Speed 7 mph (NE)    
Max Wind Speed 24 mph    
Max Gust Speed 32 mph    
Visibility 10 miles    
Events      
T = Trace of Precipitation, MM = Missing Value Source: NWS Daily Summary

Daily Weather History Graph

Daily Weather History Graph

Search for Another Location

Airport or City:

Astronomy

Jul. 23, 2013 Rise Set
Actual Time 6:19 AM CDT 8:46 PM CDT
Civil Twilight 5:48 AM CDT 9:16 PM CDT
Nautical Twilight 5:11 AM CDT 9:54 PM CDT
Astronomical Twilight 4:28 AM CDT 10:36 PM CDT
Moon 9:16 PM CDT (7/23) 7:28 AM CDT (7/23)
Length of Visible Light 15h 27m
Length of Day
14h 26m
Full, 99% of the Moon is Illuminated
Jul 23
Full
Jul 29
Last Quarter
Aug 6
New
Aug 14
First Quarter
Aug 20
Full

Hourly Weather History & Observations

Time (CDT) Temp. Heat Index Dew Point Humidity Pressure Visibility Wind Dir Wind Speed Gust Speed Precip Events Conditions
12:52 AM 71.1 °F - 71.1 °F 100% 29.82 in 9.0 mi Calm Calm - N/A   Clear
1:52 AM 70.0 °F - 70.0 °F 100% 29.82 in 7.0 mi Calm Calm - N/A   Clear
2:52 AM 69.1 °F - 69.1 °F 100% 29.82 in 8.0 mi SSW 4.6 mph - N/A   Clear
3:52 AM 68.0 °F - 68.0 °F 100% 29.80 in 7.0 mi Calm Calm - N/A   Clear
4:52 AM 69.1 °F - 69.1 °F 100% 29.81 in 10.0 mi SW 3.5 mph - N/A   Clear
5:52 AM 66.9 °F - 66.9 °F 100% 29.81 in 8.0 mi Calm Calm - N/A   Clear
6:52 AM 68.0 °F - 68.0 °F 100% 29.83 in 10.0 mi Calm Calm - N/A   Clear
7:52 AM 73.0 °F - 70.0 °F 90% 29.91 in 10.0 mi NNW 9.2 mph - N/A   Clear
8:52 AM 72.0 °F - 66.9 °F 84% 29.96 in 10.0 mi Variable 3.5 mph - N/A   Clear
9:52 AM 72.0 °F - 70.0 °F 93% 29.87 in 10.0 mi NE 16.1 mph 25.3 mph 0.00 in   Partly Cloudy
10:43 AM 73.4 °F - 69.8 °F 88% 30.00 in 10.0 mi NNE 8.1 mph - N/A   Mostly Cloudy
10:52 AM 73.0 °F - 69.1 °F 87% 29.93 in 10.0 mi ENE 15.0 mph 25.3 mph N/A   Scattered Clouds
11:52 AM 72.0 °F - 66.9 °F 84% 29.85 in 10.0 mi ESE 11.5 mph 21.9 mph 0.00 in   Clear
12:52 PM 73.9 °F - 68.0 °F 82% 29.87 in 10.0 mi South 5.8 mph - N/A   Clear
1:52 PM 73.9 °F - 70.0 °F 87% 29.87 in 10.0 mi East 4.6 mph - N/A   Partly Cloudy
2:52 PM 73.9 °F - 69.1 °F 85% 29.89 in 10.0 mi Calm Calm - N/A   Clear
3:52 PM 80.1 °F 82.7 °F 68.0 °F 67% 29.86 in 10.0 mi Variable 3.5 mph - N/A   Clear
4:52 PM 81.0 °F 83.8 °F 68.0 °F 65% 29.88 in 10.0 mi ENE 10.4 mph - N/A   Clear
5:52 PM 82.0 °F 86.3 °F 71.1 °F 69% 29.87 in 10.0 mi NNE 8.1 mph - N/A   Clear
6:52 PM 82.0 °F 86.7 °F 72.0 °F 71% 29.87 in 10.0 mi NE 11.5 mph - N/A   Clear
7:52 PM 81.0 °F 84.9 °F 71.1 °F 72% 29.85 in 10.0 mi NE 11.5 mph - N/A   Scattered Clouds
8:52 PM 75.9 °F - 71.1 °F 85% 29.87 in 10.0 mi NE 10.4 mph - N/A   Clear
9:52 PM 75.0 °F - 70.0 °F 84% 29.90 in 10.0 mi NE 8.1 mph - N/A   Mostly Cloudy
10:52 PM 73.0 °F - 70.0 °F 90% 29.93 in 10.0 mi NNE 6.9 mph - N/A   Clear
11:52 PM 71.1 °F - 70.0 °F 96% 29.93 in 10.0 mi NNE 9.2 mph - N/A   Clear